| time (UTC) | temp C | wind direction | speed KPH | gust KPH | rain 1hr cm | rain 24hr cm | rain mn cm | humidity % | barometer mb |
| 20260508101518 | 4 | 300 | 0.0 | 0.0 | 0.00 | 0.00 | 0.00 | 56 | 1008.9 |
| 20260508100017 | 4 | 300 | 0.0 | 0.0 | 0.00 | 0.00 | 0.00 | 56 | 1009.0 |
| 20260508094516 | 5 | 300 | 0.0 | 0.0 | 0.00 | 0.00 | 0.00 | 56 | 1009.1 |
| 20260508093015 | 4 | 300 | 0.0 | 0.0 | 0.00 | 0.00 | 0.00 | 57 | 1009.1 |
| 20260508091514 | 4 | 300 | 0.0 | 0.0 | 0.00 | 0.00 | 0.00 | 55 | 1009.0 |
| 20260508090012 | 5 | 300 | 0.0 | 0.0 | 0.00 | 0.00 | 0.00 | 53 | 1009.1 |
| 20260508084509 | 5 | 300 | 0.0 | 0.0 | 0.00 | 0.00 | 0.00 | 54 | 1009.2 |
| 20260508083007 | 5 | 300 | 0.0 | 0.0 | 0.00 | 0.00 | 0.00 | 53 | 1009.3 |
| 20260508081504 | 5 | 300 | 0.0 | 0.0 | 0.00 | 0.00 | 0.00 | 51 | 1009.5 |
| 20260508080004 | 6 | 300 | 0.0 | 0.0 | 0.00 | 0.00 | 0.00 | 50 | 1009.5 |
| 20260508074605 | 6 | 300 | 0.0 | 0.0 | 0.00 | 0.00 | 0.00 | 48 | 1009.6 |
| 20260508073058 | 6 | 300 | 0.0 | 0.0 | 0.00 | 0.00 | 0.00 | 48 | 1009.7 |
| 20260508071557 | 6 | 300 | 0.0 | 0.0 | 0.00 | 0.00 | 0.00 | 47 | 1009.8 |
| 20260508070056 | 7 | 300 | 0.0 | 0.0 | 0.00 | 0.00 | 0.00 | 47 | 1009.8 |
| 20260508064555 | 7 | 300 | 0.0 | 0.0 | 0.00 | 0.00 | 0.00 | 48 | 1009.9 |
| 20260508063059 | 7 | 300 | 0.0 | 0.0 | 0.00 | 0.00 | 0.00 | 49 | 1009.9 |
| 20260508061556 | 6 | 300 | 0.0 | 0.0 | 0.00 | 0.00 | 0.00 | 50 | 1010.0 |
| 20260508060051 | 6 | 300 | 0.0 | 0.0 | 0.00 | 0.00 | 0.00 | 51 | 1010.1 |
| 20260508054549 | 6 | 300 | 0.0 | 0.0 | 0.00 | 0.00 | 0.00 | 56 | 1010.1 |
| 20260508053056 | 6 | 300 | 0.0 | 0.0 | 0.00 | 0.00 | 0.00 | 55 | 1010.0 |
| 20260508051548 | 7 | 300 | 0.0 | 0.0 | 0.00 | 0.00 | 0.00 | 51 | 1010.0 |
| 20260508050042 | 7 | 300 | 0.0 | 0.0 | 0.00 | 0.00 | 0.00 | 52 | 1010.0 |
| 20260508044542 | 8 | 300 | 0.0 | 0.0 | 0.00 | 0.00 | 0.00 | 47 | 1009.9 |
| 20260508043049 | 8 | 300 | 0.0 | 0.0 | 0.00 | 0.00 | 0.00 | 44 | 1010.0 |
| 20260508041542 | 8 | 300 | 0.0 | 0.0 | 0.00 | 0.00 | 0.00 | 46 | 1010.0 |
| 20260508040040 | 8 | 300 | 0.0 | 0.0 | 0.00 | 0.00 | 0.00 | 48 | 1010.0 |
| 20260508034547 | 8 | 300 | 0.0 | 0.0 | 0.00 | 0.00 | 0.00 | 49 | 1010.1 |
| 20260508033039 | 9 | 300 | 0.0 | 0.0 | 0.00 | 0.00 | 0.00 | 49 | 1010.0 |
| 20260508031539 | 9 | 300 | 0.0 | 0.0 | 0.00 | 0.00 | 0.00 | 49 | 1010.0 |
| 20260508030039 | 10 | 300 | 0.0 | 0.0 | 0.00 | 0.00 | 0.00 | 52 | 1010.1 |
| 20260508024538 | 10 | 300 | 0.0 | 0.0 | 0.00 | 0.00 | 0.00 | 44 | 1010.0 |
| 20260508023037 | 10 | 300 | 0.0 | 0.0 | 0.00 | 0.00 | 0.00 | 49 | 1009.8 |
| 20260508021538 | 11 | 300 | 0.0 | 0.0 | 0.00 | 0.00 | 0.00 | 54 | 1009.7 |
| 20260508020039 | 11 | 300 | 0.0 | 0.0 | 0.00 | 0.00 | 0.00 | 49 | 1009.6 |
| 20260508014536 | 13 | 300 | 0.0 | 0.0 | 0.00 | 0.00 | 0.00 | 47 | 1009.4 |
| 20260508013037 | 13 | 300 | 0.0 | 4.8 | 0.00 | 0.00 | 0.00 | 45 | 1009.4 |
| 20260508011535 | 14 | 300 | 3.2 | 6.4 | 0.00 | 0.00 | 0.00 | 40 | 1009.2 |
| 20260508010034 | 15 | 301 | 3.2 | 9.7 | 0.00 | 0.00 | 0.00 | 41 | 1009.0 |
| 20260508004533 | 15 | 304 | 0.0 | 11.3 | 0.00 | 0.00 | 0.00 | 36 | 1008.9 |
| 20260508003033 | 15 | 285 | 6.4 | 11.3 | 0.00 | 0.00 | 0.00 | 38 | 1008.8 |
| 20260508001533 | 16 | 281 | 6.4 | 17.7 | 0.00 | 0.00 | 0.00 | 37 | 1008.8 |
| 20260508000031 | 16 | 263 | 9.7 | 17.7 | 0.00 | 0.00 | 0.00 | 35 | 1008.9 |
| 20260507234539 | 16 | 269 | 11.3 | 17.7 | 0.00 | 0.00 | 0.00 | 35 | 1009.0 |
| 20260507233030 | 16 | 303 | 8.0 | 19.3 | 0.00 | 0.00 | 0.00 | 31 | 1009.0 |
| 20260507231527 | 16 | 230 | 9.7 | 25.7 | 0.00 | 0.00 | 0.00 | 30 | 1009.1 |
| 20260507230026 | 16 | 246 | 9.7 | 27.4 | 0.00 | 0.00 | 0.00 | 34 | 1009.1 |
| 20260507224527 | 16 | 287 | 6.4 | 20.9 | 0.00 | 0.00 | 0.00 | 33 | 1009.2 |
| 20260507223024 | 17 | 241 | 14.5 | 22.5 | 0.00 | 0.00 | 0.00 | 34 | 1009.3 |
| 20260507221523 | 17 | 252 | 14.5 | 29.0 | 0.00 | 0.00 | 0.00 | 34 | 1009.2 |
| 20260507220021 | 16 | 257 | 6.4 | 16.1 | 0.00 | 0.00 | 0.00 | 35 | 1009.4 |
| 20260507214524 | 16 | 238 | 8.0 | 25.7 | 0.00 | 0.00 | 0.00 | 28 | 1009.5 |
| 20260507213020 | 16 | 225 | 3.2 | 14.5 | 0.00 | 0.00 | 0.00 | 28 | 1009.6 |
| 20260507211517 | 16 | 244 | 6.4 | 24.1 | 0.00 | 0.00 | 0.00 | 29 | 1009.5 |
| 20260507210016 | 16 | 265 | 11.3 | 25.7 | 0.00 | 0.00 | 0.00 | 31 | 1009.6 |
| 20260507204514 | 16 | 244 | 16.1 | 27.4 | 0.00 | 0.00 | 0.00 | 30 | 1009.7 |
| 20260507203014 | 16 | 229 | 8.0 | 27.4 | 0.00 | 0.00 | 0.00 | 33 | 1009.9 |
| 20260507201511 | 16 | 233 | 6.4 | 20.9 | 0.00 | 0.00 | 0.00 | 29 | 1010.0 |
| 20260507200011 | 16 | 262 | 12.9 | 37.0 | 0.00 | 0.00 | 0.00 | 33 | 1010.3 |
| 20260507194508 | 16 | 270 | 16.1 | 29.0 | 0.00 | 0.00 | 0.00 | 35 | 1010.4 |
| 20260507193005 | 16 | 246 | 14.5 | 30.6 | 0.00 | 0.00 | 0.00 | 30 | 1010.4 |
| 20260507191506 | 16 | 250 | 4.8 | 16.1 | 0.00 | 0.00 | 0.00 | 31 | 1010.5 |
| 20260507190005 | 16 | 249 | 8.0 | 27.4 | 0.00 | 0.00 | 0.00 | 31 | 1010.7 |
| 20260507184604 | 16 | 346 | 0.0 | 12.9 | 0.00 | 0.00 | 0.00 | 33 | 1010.6 |
| 20260507183100 | 15 | 309 | 8.0 | 12.9 | 0.00 | 0.00 | 0.00 | 38 | 1010.7 |
| 20260507181558 | 16 | 251 | 9.7 | 16.1 | 0.00 | 0.00 | 0.00 | 34 | 1010.8 |
| 20260507180054 | 15 | 318 | 1.6 | 11.3 | 0.00 | 0.00 | 0.00 | 36 | 1010.9 |
| 20260507174601 | 15 | 273 | 0.0 | 14.5 | 0.00 | 0.00 | 0.00 | 34 | 1011.1 |
| 20260507173051 | 15 | 290 | 0.0 | 6.4 | 0.00 | 0.00 | 0.00 | 33 | 1011.3 |
| 20260507171600 | 15 | 280 | 0.0 | 8.0 | 0.00 | 0.00 | 0.00 | 37 | 1011.5 |
| 20260507170050 | 15 | 345 | 0.0 | 0.0 | 0.00 | 0.00 | 0.00 | 35 | 1011.6 |
| 20260507164544 | 14 | 325 | 0.0 | 8.0 | 0.00 | 0.00 | 0.00 | 40 | 1011.7 |
| 20260507163040 | 13 | 325 | 0.0 | 11.3 | 0.00 | 0.00 | 0.00 | 42 | 1011.8 |
| 20260507161538 | 12 | 338 | 1.6 | 14.5 | 0.00 | 0.00 | 0.00 | 45 | 1011.7 |
| 20260507160033 | 11 | 355 | 8.0 | 16.1 | 0.00 | 0.00 | 0.00 | 43 | 1011.8 |
| 20260507154533 | 11 | 13 | 8.0 | 17.7 | 0.00 | 0.00 | 0.00 | 48 | 1011.9 |
| 20260507153027 | 10 | 5 | 9.7 | 19.3 | 0.00 | 0.00 | 0.00 | 47 | 1011.9 |
| 20260507151522 | 10 | 20 | 12.9 | 22.5 | 0.00 | 0.00 | 0.00 | 50 | 1011.8 |
| 20260507150020 | 9 | 10 | 8.0 | 16.1 | 0.00 | 0.00 | 0.00 | 51 | 1011.9 |
| 20260507144517 | 8 | 360 | 9.7 | 16.1 | 0.00 | 0.00 | 0.00 | 54 | 1011.9 |
| 20260507143011 | 8 | 360 | 8.0 | 12.9 | 0.00 | 0.00 | 0.00 | 55 | 1012.0 |
| 20260507141508 | 7 | 348 | 6.4 | 11.3 | 0.00 | 0.00 | 0.00 | 56 | 1012.1 |
| 20260507140006 | 6 | 348 | 0.0 | 0.0 | 0.00 | 0.00 | 0.00 | 59 | 1012.1 |
| 20260507134601 | 6 | 348 | 0.0 | 11.3 | 0.00 | 0.00 | 0.00 | 61 | 1012.1 |
| 20260507133058 | 5 | 351 | 6.4 | 0.0 | 0.00 | 0.00 | 0.00 | 63 | 1012.4 |
| 20260507131558 | 5 | 355 | 6.4 | 11.3 | 0.00 | 0.00 | 0.00 | 65 | 1012.4 |
| 20260507130109 | 5 | 331 | 6.4 | 16.1 | 0.00 | 0.00 | 0.00 | 67 | 1012.4 |
| 20260507124603 | 5 | 300 | 9.7 | 19.3 | 0.00 | 0.00 | 0.00 | 67 | 1012.7 |
| 20260507123053 | 5 | 17 | 0.0 | 1.6 | 0.00 | 0.00 | 0.00 | 65 | 1012.1 |
| 20260507121550 | 4 | 20 | 0.0 | 0.0 | 0.00 | 0.00 | 0.00 | 66 | 1011.5 |
| 20260507120049 | 3 | 20 | 0.0 | 0.0 | 0.00 | 0.00 | 0.00 | 69 | 1011.4 |
| 20260507114555 | 2 | 20 | 0.0 | 0.0 | 0.00 | 0.00 | 0.00 | 68 | 1011.4 |
| 20260507113047 | 2 | 20 | 0.0 | 0.0 | 0.00 | 0.00 | 0.00 | 68 | 1011.5 |
| 20260507111550 | 2 | 20 | 0.0 | 0.0 | 0.00 | 0.00 | 0.00 | 67 | 1011.5 |
| 20260507110044 | 3 | 20 | 0.0 | 0.0 | 0.00 | 0.00 | 0.00 | 66 | 1011.9 |
| 20260507104542 | 3 | 20 | 0.0 | 1.6 | 0.00 | 0.00 | 0.00 | 66 | 1012.1 |
| 20260507103043 | 3 | 20 | 0.0 | 0.0 | 0.00 | 0.00 | 0.00 | 65 | 1012.4 |